This is the latest recevied weather packets stored in our database for station/object DF7ER-12. If no packets are shown the sender has not sent any weather packets the latest 10 day(s).
| Time | Temp. | Humidity | Pressure | Rain* | Wind** | Luminosity | Snow |
|---|---|---|---|---|---|---|---|
| 1777874224 | 19.44° C | 90% | 1001.5 hPa | - | - | - | - |
| 1777873598 | 18.89° C | 89% | 1001.7 hPa | - | - | - | - |
| 1777873298 | 18.89° C | 92% | 1001.8 hPa | - | - | - | - |
| 1777872998 | 19.44° C | 88% | 1001.8 hPa | - | - | - | - |
| 1777872699 | 18.89° C | 90% | 1001.7 hPa | - | - | - | - |
| 1777872398 | 18.33° C | 95% | 1001.7 hPa | - | - | - | - |
| 1777872098 | 18.89° C | 90% | 1001.6 hPa | - | - | - | - |
| 1777871798 | 18.89° C | 90% | 1001.6 hPa | - | - | - | - |
| 1777871498 | 18.89° C | 88% | 1001.6 hPa | - | - | - | - |
| 1777871199 | 18.89° C | 86% | 1001.5 hPa | - | - | - | - |
| 1777870898 | 18.89° C | 88% | 1001.4 hPa | - | - | - | - |
| 1777870598 | 19.44° C | 84% | 1001.3 hPa | - | - | - | - |
| 1777870298 | 19.44° C | 84% | 1001.2 hPa | - | - | - | - |
| 1777869999 | 19.44° C | 82% | 1001.2 hPa | - | - | - | - |
| 1777869699 | 19.44° C | 82% | 1001.1 hPa | - | - | - | - |
| 1777869398 | 19.44° C | 82% | 1001.1 hPa | - | - | - | - |
| 1777869098 | 18.89° C | 83% | 1001.1 hPa | - | - | - | - |
| 1777868798 | 19.44° C | 81% | 1001 hPa | - | - | - | - |
| 1777868499 | 19.44° C | 80% | 1001.1 hPa | - | - | - | - |
| 1777868198 | 19.44° C | 80% | 1001 hPa | - | - | - | - |
| 1777867899 | 19.44° C | 81% | 1001 hPa | - | - | - | - |
| 1777867598 | 18.89° C | 82% | 1000.9 hPa | - | - | - | - |
| 1777867298 | 19.44° C | 81% | 1000.9 hPa | - | - | - | - |
| 1777866999 | 18.89° C | 82% | 1000.8 hPa | - | - | - | - |
| 1777866699 | 19.44° C | 79% | 1000.8 hPa | - | - | - | - |
* Rain since midnight (hover to see other rain measurements)
** Current wind speed in m/s (hover to see current wind gust speed)